owner,sensor,date,latitude,longitude,vertical_datum,direction_of_sea_water_velocity,sea_water_speed,upward_sea_water_velocity,qcFlag 
ADCP,ioos:station:wmo:42373:1,2008-08-01T00:12:00Z,27.3540,-94.6250,79.0,151.0,29.3,-9999.0,'11111222,11111222,99999999' 
ADCP,ioos:station:wmo:42373:1,2008-08-01T00:32:00Z,27.3540,-94.6250,79.0,163.0,27.5,-9999.0,'11111222,11111222,99999999' 
ADCP,ioos:station:wmo:42373:1,2008-08-01T00:52:00Z,27.3540,-94.6250,79.0,156.0,30.9,-9999.0,'11111222,11111222,99999999' 
ADCP,ioos:station:wmo:42373:1,2008-08-01T01:12:00Z,27.3540,-94.6250,79.0,158.0,30.6,-9999.0,'11111222,11111222,99999999' 
ADCP,ioos:station:wmo:42373:1,2008-08-01T01:32:00Z,27.3540,-94.6250,79.0,159.0,28.3,-9999.0,'11111222,11111222,99999999' 
ADCP,ioos:station:wmo:42373:1,2008-08-01T01:52:00Z,27.3540,-94.6250,79.0,162.0,26.9,-9999.0,'11111222,11111222,99999999' 
ADCP,ioos:station:wmo:42373:1,2008-08-01T02:12:00Z,27.3540,-94.6250,79.0,164.0,25.5,-9999.0,'11111222,11111222,99999999' 
ADCP,ioos:station:wmo:42373:1,2008-08-01T02:32:00Z,27.3540,-94.6250,79.0,161.0,24.0,-9999.0,'11111222,11111222,99999999' 
ADCP,ioos:station:wmo:42373:1,2008-08-01T02:52:00Z,27.3540,-94.6250,79.0,158.0,23.7,-9999.0,'11111222,11111222,99999999' 
ADCP,ioos:station:wmo:42373:1,2008-08-01T03:12:00Z,27.3540,-94.6250,79.0,161.0,23.6,-9999.0,'11111222,11111222,99999999' 
ADCP,ioos:station:wmo:42373:1,2008-08-01T03:32:00Z,27.3540,-94.6250,79.0,163.0,23.9,-9999.0,'11111222,11111222,99999999' 
ADCP,ioos:station:wmo:42373:1,2008-08-01T03:52:00Z,27.3540,-94.6250,79.0,162.0,23.9,-9999.0,'11111222,11111222,99999999' 
ADCP,ioos:station:wmo:42373:1,2008-08-01T04:12:00Z,27.3540,-94.6250,79.0,164.0,23.4,-9999.0,'11111222,11111222,99999999' 
ADCP,ioos:station:wmo:42373:1,2008-08-01T04:32:00Z,27.3540,-94.6250,79.0,163.0,24.1,-9999.0,'11111222,11111222,99999999' 
ADCP,ioos:station:wmo:42373:1,2008-08-01T04:52:00Z,27.3540,-94.6250,79.0,163.0,24.2,-9999.0,'11111222,11111222,99999999' 
ADCP,ioos:station:wmo:42373:1,2008-08-01T05:12:00Z,27.3540,-94.6250,79.0,158.0,23.7,-9999.0,'11111222,11111222,99999999' 
ADCP,ioos:station:wmo:42373:1,2008-08-01T05:32:00Z,27.3540,-94.6250,79.0,159.0,23.0,-9999.0,'11111222,11111222,99999999' 
ADCP,ioos:station:wmo:42373:1,2008-08-01T05:52:00Z,27.3540,-94.6250,79.0,157.0,23.0,-9999.0,'11111222,11111222,99999999' 
ADCP,ioos:station:wmo:42373:1,2008-08-01T06:12:00Z,27.3540,-94.6250,79.0,157.0,23.5,-9999.0,'11111222,11111222,99999999' 
ADCP,ioos:station:wmo:42373:1,2008-08-01T06:32:00Z,27.3540,-94.6250,79.0,151.0,23.3,-9999.0,'11111222,11111222,99999999' 
ADCP,ioos:station:wmo:42373:1,2008-08-01T06:52:00Z,27.3540,-94.6250,79.0,152.0,24.9,-9999.0,'11111222,11111222,99999999' 
ADCP,ioos:station:wmo:42373:1,2008-08-01T07:12:00Z,27.3540,-94.6250,79.0,156.0,26.4,-9999.0,'11111222,11111222,99999999' 
ADCP,ioos:station:wmo:42373:1,2008-08-01T07:32:00Z,27.3540,-94.6250,79.0,156.0,28.7,-9999.0,'11111222,11111222,99999999' 
ADCP,ioos:station:wmo:42373:1,2008-08-01T07:52:00Z,27.3540,-94.6250,79.0,153.0,28.4,-9999.0,'11111222,11111222,99999999' 
ADCP,ioos:station:wmo:42373:1,2008-08-01T08:12:00Z,27.3540,-94.6250,79.0,153.0,28.8,-9999.0,'11111222,11111222,99999999' 
ADCP,ioos:station:wmo:42373:1,2008-08-01T08:32:00Z,27.3540,-94.6250,79.0,150.0,29.2,-9999.0,'11111222,11111222,99999999' 
ADCP,ioos:station:wmo:42373:1,2008-08-01T08:52:00Z,27.3540,-94.6250,79.0,145.0,29.6,-9999.0,'11111222,11111222,99999999' 
ADCP,ioos:station:wmo:42373:1,2008-08-01T09:12:00Z,27.3540,-94.6250,79.0,143.0,32.1,-9999.0,'11111222,11111222,99999999' 
ADCP,ioos:station:wmo:42373:1,2008-08-01T09:32:00Z,27.3540,-94.6250,79.0,141.0,33.2,-9999.0,'11111222,11111222,99999999' 
ADCP,ioos:station:wmo:42373:1,2008-08-01T09:52:00Z,27.3540,-94.6250,79.0,141.0,34.0,-9999.0,'11111222,11111222,99999999' 
ADCP,ioos:station:wmo:42373:1,2008-08-01T10:12:00Z,27.3540,-94.6250,79.0,142.0,34.5,-9999.0,'11111222,11111222,99999999' 
ADCP,ioos:station:wmo:42373:1,2008-08-01T10:32:00Z,27.3540,-94.6250,79.0,137.0,35.4,-9999.0,'11111222,11111222,99999999' 
ADCP,ioos:station:wmo:42373:1,2008-08-01T10:52:00Z,27.3540,-94.6250,79.0,137.0,38.3,-9999.0,'11111222,11111222,99999999' 
ADCP,ioos:station:wmo:42373:1,2008-08-01T11:12:00Z,27.3540,-94.6250,79.0,141.0,40.5,-9999.0,'11111222,11111222,99999999' 
ADCP,ioos:station:wmo:42373:1,2008-08-01T11:32:00Z,27.3540,-94.6250,79.0,149.0,33.4,-9999.0,'11111222,11111222,99999999' 
ADCP,ioos:station:wmo:42373:1,2008-08-01T11:52:00Z,27.3540,-94.6250,79.0,148.0,34.2,-9999.0,'11111222,11111222,99999999' 
ADCP,ioos:station:wmo:42373:1,2008-08-01T12:12:00Z,27.3540,-94.6250,79.0,156.0,34.9,-9999.0,'11111222,11111222,99999999' 
ADCP,ioos:station:wmo:42373:1,2008-08-01T12:32:00Z,27.3540,-94.6250,79.0,157.0,37.1,-9999.0,'11111222,11111222,99999999' 
ADCP,ioos:station:wmo:42373:1,2008-08-01T12:52:00Z,27.3540,-94.6250,79.0,160.0,37.1,-9999.0,'11111222,11111222,99999999' 
ADCP,ioos:station:wmo:42373:1,2008-08-01T13:12:00Z,27.3540,-94.6250,79.0,159.0,38.5,-9999.0,'11111222,11111222,99999999' 
ADCP,ioos:station:wmo:42373:1,2008-08-01T13:32:00Z,27.3540,-94.6250,79.0,171.0,38.4,-9999.0,'11111222,11111222,99999999' 
ADCP,ioos:station:wmo:42373:1,2008-08-01T13:52:00Z,27.3540,-94.6250,79.0,175.0,38.3,-9999.0,'11111222,11111222,99999999' 
ADCP,ioos:station:wmo:42373:1,2008-08-01T14:12:00Z,27.3540,-94.6250,79.0,177.0,37.0,-9999.0,'11111222,11111222,99999999' 
ADCP,ioos:station:wmo:42373:1,2008-08-01T14:32:00Z,27.3540,-94.6250,79.0,168.0,37.5,-9999.0,'11111222,11111222,99999999' 
ADCP,ioos:station:wmo:42373:1,2008-08-01T14:52:00Z,27.3540,-94.6250,79.0,169.0,37.8,-9999.0,'11111222,11111222,99999999' 
ADCP,ioos:station:wmo:42373:1,2008-08-01T15:12:00Z,27.3540,-94.6250,79.0,180.0,37.8,-9999.0,'11111222,11111222,99999999' 
ADCP,ioos:station:wmo:42373:1,2008-08-01T15:32:00Z,27.3540,-94.6250,79.0,178.0,39.1,-9999.0,'11111222,11111222,99999999' 
ADCP,ioos:station:wmo:42373:1,2008-08-01T15:52:00Z,27.3540,-94.6250,79.0,171.0,39.2,-9999.0,'11111222,11111222,99999999' 
ADCP,ioos:station:wmo:42373:1,2008-08-01T16:12:00Z,27.3540,-94.6250,79.0,171.0,37.3,-9999.0,'11111222,11111222,99999999' 
ADCP,ioos:station:wmo:42373:1,2008-08-01T16:32:00Z,27.3540,-94.6250,79.0,174.0,39.2,-9999.0,'11111222,11111222,99999999' 
ADCP,ioos:station:wmo:42373:1,2008-08-01T16:52:00Z,27.3540,-94.6250,79.0,181.0,39.8,-9999.0,'11111222,11111222,99999999' 
ADCP,ioos:station:wmo:42373:1,2008-08-01T17:12:00Z,27.3540,-94.6250,79.0,170.0,41.0,-9999.0,'11111222,11111222,99999999' 
ADCP,ioos:station:wmo:42373:1,2008-08-01T17:32:00Z,27.3540,-94.6250,79.0,175.0,42.5,-9999.0,'11111222,11111222,99999999' 
ADCP,ioos:station:wmo:42373:1,2008-08-01T17:52:00Z,27.3540,-94.6250,79.0,168.0,44.0,-9999.0,'11111222,11111222,99999999' 
ADCP,ioos:station:wmo:42373:1,2008-08-01T18:12:00Z,27.3540,-94.6250,79.0,169.0,44.2,-9999.0,'11111222,11111222,99999999' 
ADCP,ioos:station:wmo:42373:1,2008-08-01T18:32:00Z,27.3540,-94.6250,79.0,171.0,44.7,-9999.0,'11111222,11111222,99999999' 
ADCP,ioos:station:wmo:42373:1,2008-08-01T18:52:00Z,27.3540,-94.6250,79.0,170.0,46.3,-9999.0,'11111222,11111222,99999999' 
ADCP,ioos:station:wmo:42373:1,2008-08-01T19:12:00Z,27.3540,-94.6250,79.0,172.0,46.2,-9999.0,'11111222,11111222,99999999' 
ADCP,ioos:station:wmo:42373:1,2008-08-01T19:32:00Z,27.3540,-94.6250,79.0,171.0,48.3,-9999.0,'11111222,11111222,99999999' 
ADCP,ioos:station:wmo:42373:1,2008-08-01T19:52:00Z,27.3540,-94.6250,79.0,171.0,48.6,-9999.0,'11111222,11111222,99999999' 
ADCP,ioos:station:wmo:42373:1,2008-08-01T20:12:00Z,27.3540,-94.6250,79.0,174.0,49.3,-9999.0,'11111222,11111222,99999999' 
ADCP,ioos:station:wmo:42373:1,2008-08-01T20:32:00Z,27.3540,-94.6250,79.0,170.0,51.3,-9999.0,'11111222,11111222,99999999' 
ADCP,ioos:station:wmo:42373:1,2008-08-01T20:52:00Z,27.3540,-94.6250,79.0,167.0,51.4,-9999.0,'11111222,11111222,99999999' 
ADCP,ioos:station:wmo:42373:1,2008-08-01T21:12:00Z,27.3540,-94.6250,79.0,168.0,52.0,-9999.0,'11111222,11111222,99999999' 
ADCP,ioos:station:wmo:42373:1,2008-08-01T21:32:00Z,27.3540,-94.6250,79.0,162.0,53.2,-9999.0,'11111222,11111222,99999999' 
ADCP,ioos:station:wmo:42373:1,2008-08-01T21:52:00Z,27.3540,-94.6250,79.0,171.0,53.1,-9999.0,'11111222,11111222,99999999' 
ADCP,ioos:station:wmo:42373:1,2008-08-01T22:12:00Z,27.3540,-94.6250,79.0,178.0,51.0,-9999.0,'11111222,11111222,99999999' 
ADCP,ioos:station:wmo:42373:1,2008-08-01T22:32:00Z,27.3540,-94.6250,79.0,169.0,52.2,-9999.0,'11111222,11111222,99999999' 
ADCP,ioos:station:wmo:42373:1,2008-08-01T22:52:00Z,27.3540,-94.6250,79.0,180.0,50.0,-9999.0,'11111222,11111222,99999999' 
ADCP,ioos:station:wmo:42373:1,2008-08-01T23:12:00Z,27.3540,-94.6250,79.0,171.0,48.7,-9999.0,'11111222,11111222,99999999' 
ADCP,ioos:station:wmo:42373:1,2008-08-01T23:32:00Z,27.3540,-94.6250,79.0,174.0,49.7,-9999.0,'11111222,11111222,99999999' 
ADCP,ioos:station:wmo:42373:1,2008-08-01T23:52:00Z,27.3540,-94.6250,79.0,165.0,49.5,-9999.0,'11111222,11111222,99999999' 
ADCP,ioos:station:wmo:42373:1,2008-08-02T00:12:00Z,27.3540,-94.6250,79.0,161.0,54.3,-9999.0,'11111222,11111222,99999999' 
ADCP,ioos:station:wmo:42373:1,2008-08-02T00:32:00Z,27.3540,-94.6250,79.0,161.0,56.5,-9999.0,'11111222,11111222,99999999' 
ADCP,ioos:station:wmo:42373:1,2008-08-02T00:52:00Z,27.3540,-94.6250,79.0,161.0,57.7,-9999.0,'11111222,11111222,99999999' 
ADCP,ioos:station:wmo:42373:1,2008-08-02T01:12:00Z,27.3540,-94.6250,79.0,161.0,56.9,-9999.0,'11111222,11111222,99999999' 
ADCP,ioos:station:wmo:42373:1,2008-08-02T01:32:00Z,27.3540,-94.6250,79.0,160.0,55.1,-9999.0,'11111222,11111222,99999999' 
ADCP,ioos:station:wmo:42373:1,2008-08-02T01:52:00Z,27.3540,-94.6250,79.0,162.0,53.8,-9999.0,'11111222,11111222,99999999' 
ADCP,ioos:station:wmo:42373:1,2008-08-02T02:12:00Z,27.3540,-94.6250,79.0,161.0,52.7,-9999.0,'11111222,11111222,99999999' 
ADCP,ioos:station:wmo:42373:1,2008-08-02T02:32:00Z,27.3540,-94.6250,79.0,162.0,49.8,-9999.0,'11111222,11111222,99999999' 
ADCP,ioos:station:wmo:42373:1,2008-08-02T02:52:00Z,27.3540,-94.6250,79.0,160.0,49.6,-9999.0,'11111222,11111222,99999999' 
ADCP,ioos:station:wmo:42373:1,2008-08-02T03:12:00Z,27.3540,-94.6250,79.0,162.0,48.6,-9999.0,'11111222,11111222,99999999' 
ADCP,ioos:station:wmo:42373:1,2008-08-02T03:32:00Z,27.3540,-94.6250,79.0,164.0,48.1,-9999.0,'11111222,11111222,99999999' 
ADCP,ioos:station:wmo:42373:1,2008-08-02T03:52:00Z,27.3540,-94.6250,79.0,160.0,45.1,-9999.0,'11111222,11111222,99999999' 
ADCP,ioos:station:wmo:42373:1,2008-08-02T04:12:00Z,27.3540,-94.6250,79.0,158.0,44.4,-9999.0,'11111222,11111222,99999999' 
ADCP,ioos:station:wmo:42373:1,2008-08-02T04:32:00Z,27.3540,-94.6250,79.0,152.0,43.3,-9999.0,'11111222,11111222,99999999' 
ADCP,ioos:station:wmo:42373:1,2008-08-02T04:52:00Z,27.3540,-94.6250,79.0,151.0,42.2,-9999.0,'11111222,11111222,99999999' 
ADCP,ioos:station:wmo:42373:1,2008-08-02T05:12:00Z,27.3540,-94.6250,79.0,155.0,42.0,-9999.0,'11111222,11111222,99999999' 
ADCP,ioos:station:wmo:42373:1,2008-08-02T05:32:00Z,27.3540,-94.6250,79.0,150.0,41.8,-9999.0,'11111222,11111222,99999999' 
ADCP,ioos:station:wmo:42373:1,2008-08-02T05:52:00Z,27.3540,-94.6250,79.0,153.0,40.7,-9999.0,'11111222,11111222,99999999' 
ADCP,ioos:station:wmo:42373:1,2008-08-02T06:12:00Z,27.3540,-94.6250,79.0,153.0,40.6,-9999.0,'11111222,11111222,99999999' 
ADCP,ioos:station:wmo:42373:1,2008-08-02T06:32:00Z,27.3540,-94.6250,79.0,149.0,41.5,-9999.0,'11111222,11111222,99999999' 
ADCP,ioos:station:wmo:42373:1,2008-08-02T06:52:00Z,27.3540,-94.6250,79.0,150.0,40.8,-9999.0,'11111222,11111222,99999999' 
ADCP,ioos:station:wmo:42373:1,2008-08-02T07:12:00Z,27.3540,-94.6250,79.0,150.0,40.5,-9999.0,'11111222,11111222,99999999' 
ADCP,ioos:station:wmo:42373:1,2008-08-02T07:32:00Z,27.3540,-94.6250,79.0,149.0,40.6,-9999.0,'11111222,11111222,99999999' 
ADCP,ioos:station:wmo:42373:1,2008-08-02T07:52:00Z,27.3540,-94.6250,79.0,151.0,41.1,-9999.0,'11111222,11111222,99999999' 
ADCP,ioos:station:wmo:42373:1,2008-08-02T08:12:00Z,27.3540,-94.6250,79.0,150.0,40.2,-9999.0,'11111222,11111222,99999999' 
ADCP,ioos:station:wmo:42373:1,2008-08-02T08:32:00Z,27.3540,-94.6250,79.0,146.0,39.9,-9999.0,'11111222,11111222,99999999' 
ADCP,ioos:station:wmo:42373:1,2008-08-02T08:52:00Z,27.3540,-94.6250,79.0,142.0,41.6,-9999.0,'11111222,11111222,99999999' 
ADCP,ioos:station:wmo:42373:1,2008-08-02T09:12:00Z,27.3540,-94.6250,79.0,140.0,41.8,-9999.0,'11111222,11111222,99999999' 
ADCP,ioos:station:wmo:42373:1,2008-08-02T09:32:00Z,27.3540,-94.6250,79.0,139.0,42.1,-9999.0,'11111222,11111222,99999999' 
ADCP,ioos:station:wmo:42373:1,2008-08-02T09:52:00Z,27.3540,-94.6250,79.0,137.0,43.1,-9999.0,'11111222,11111222,99999999' 
ADCP,ioos:station:wmo:42373:1,2008-08-02T10:12:00Z,27.3540,-94.6250,79.0,137.0,43.7,-9999.0,'11111222,11111222,99999999' 
ADCP,ioos:station:wmo:42373:1,2008-08-02T10:32:00Z,27.3540,-94.6250,79.0,135.0,43.9,-9999.0,'11111222,11111222,99999999' 
ADCP,ioos:station:wmo:42373:1,2008-08-02T10:52:00Z,27.3540,-94.6250,79.0,134.0,44.0,-9999.0,'11111222,11111222,99999999' 
ADCP,ioos:station:wmo:42373:1,2008-08-02T11:12:00Z,27.3540,-94.6250,79.0,132.0,44.5,-9999.0,'11111222,11111222,99999999' 
ADCP,ioos:station:wmo:42373:1,2008-08-02T11:32:00Z,27.3540,-94.6250,79.0,131.0,45.4,-9999.0,'11111222,11111222,99999999' 
ADCP,ioos:station:wmo:42373:1,2008-08-02T11:52:00Z,27.3540,-94.6250,79.0,132.0,43.2,-9999.0,'11111222,11111222,99999999' 
ADCP,ioos:station:wmo:42373:1,2008-08-02T12:12:00Z,27.3540,-94.6250,79.0,136.0,43.4,-9999.0,'11111222,11111222,99999999' 
ADCP,ioos:station:wmo:42373:1,2008-08-02T12:32:00Z,27.3540,-94.6250,79.0,137.0,44.1,-9999.0,'11111222,11111222,99999999' 
ADCP,ioos:station:wmo:42373:1,2008-08-02T12:52:00Z,27.3540,-94.6250,79.0,137.0,44.8,-9999.0,'11111222,11111222,99999999' 
ADCP,ioos:station:wmo:42373:1,2008-08-02T13:12:00Z,27.3540,-94.6250,79.0,137.0,43.2,-9999.0,'11111222,11111222,99999999' 
ADCP,ioos:station:wmo:42373:1,2008-08-02T13:32:00Z,27.3540,-94.6250,79.0,134.0,48.5,-9999.0,'11111222,11111222,99999999' 
ADCP,ioos:station:wmo:42373:1,2008-08-02T13:52:00Z,27.3540,-94.6250,79.0,138.0,44.2,-9999.0,'11111222,11111222,99999999' 
ADCP,ioos:station:wmo:42373:1,2008-08-02T14:12:00Z,27.3540,-94.6250,79.0,134.0,47.3,-9999.0,'11111222,11111222,99999999' 
ADCP,ioos:station:wmo:42373:1,2008-08-02T14:32:00Z,27.3540,-94.6250,79.0,140.0,44.0,-9999.0,'11111222,11111222,99999999' 
ADCP,ioos:station:wmo:42373:1,2008-08-02T14:52:00Z,27.3540,-94.6250,79.0,143.0,43.5,-9999.0,'11111222,11111222,99999999' 
ADCP,ioos:station:wmo:42373:1,2008-08-02T15:12:00Z,27.3540,-94.6250,79.0,147.0,41.9,-9999.0,'11111222,11111222,99999999' 
ADCP,ioos:station:wmo:42373:1,2008-08-02T15:32:00Z,27.3540,-94.6250,79.0,158.0,36.5,-9999.0,'11111222,11111222,99999999' 
ADCP,ioos:station:wmo:42373:1,2008-08-02T15:52:00Z,27.3540,-94.6250,79.0,158.0,36.6,-9999.0,'11111222,11111222,99999999' 
ADCP,ioos:station:wmo:42373:1,2008-08-02T16:12:00Z,27.3540,-94.6250,79.0,159.0,37.1,-9999.0,'11111222,11111222,99999999' 
ADCP,ioos:station:wmo:42373:1,2008-08-02T16:32:00Z,27.3540,-94.6250,79.0,155.0,37.7,-9999.0,'11111222,11111222,99999999' 
ADCP,ioos:station:wmo:42373:1,2008-08-02T16:52:00Z,27.3540,-94.6250,79.0,157.0,35.9,-9999.0,'11111222,11111222,99999999' 
ADCP,ioos:station:wmo:42373:1,2008-08-02T17:12:00Z,27.3540,-94.6250,79.0,154.0,35.1,-9999.0,'11111222,11111222,99999999' 
ADCP,ioos:station:wmo:42373:1,2008-08-02T17:32:00Z,27.3540,-94.6250,79.0,156.0,35.4,-9999.0,'11111222,11111222,99999999' 
ADCP,ioos:station:wmo:42373:1,2008-08-02T17:52:00Z,27.3540,-94.6250,79.0,156.0,35.7,-9999.0,'11111222,11111222,99999999' 
ADCP,ioos:station:wmo:42373:1,2008-08-02T18:12:00Z,27.3540,-94.6250,79.0,159.0,34.7,-9999.0,'11111222,11111222,99999999' 
ADCP,ioos:station:wmo:42373:1,2008-08-02T18:32:00Z,27.3540,-94.6250,79.0,166.0,31.9,-9999.0,'11111222,11111222,99999999' 
ADCP,ioos:station:wmo:42373:1,2008-08-02T18:52:00Z,27.3540,-94.6250,79.0,169.0,33.6,-9999.0,'11111222,11111222,99999999' 
ADCP,ioos:station:wmo:42373:1,2008-08-02T19:12:00Z,27.3540,-94.6250,79.0,170.0,36.2,-9999.0,'11111222,11111222,99999999' 
ADCP,ioos:station:wmo:42373:1,2008-08-02T19:32:00Z,27.3540,-94.6250,79.0,170.0,33.0,-9999.0,'11111222,11111222,99999999' 
ADCP,ioos:station:wmo:42373:1,2008-08-02T19:52:00Z,27.3540,-94.6250,79.0,166.0,31.8,-9999.0,'11111222,11111222,99999999' 
ADCP,ioos:station:wmo:42373:1,2008-08-02T20:12:00Z,27.3540,-94.6250,79.0,178.0,30.6,-9999.0,'11111222,11111222,99999999' 
ADCP,ioos:station:wmo:42373:1,2008-08-02T20:32:00Z,27.3540,-94.6250,79.0,178.0,32.3,-9999.0,'11111222,11111222,99999999' 
ADCP,ioos:station:wmo:42373:1,2008-08-02T20:52:00Z,27.3540,-94.6250,79.0,176.0,33.4,-9999.0,'11111222,11111222,99999999' 
ADCP,ioos:station:wmo:42373:1,2008-08-02T21:12:00Z,27.3540,-94.6250,79.0,167.0,33.0,-9999.0,'11111222,11111222,99999999' 
ADCP,ioos:station:wmo:42373:1,2008-08-02T21:32:00Z,27.3540,-94.6250,79.0,173.0,35.2,-9999.0,'11111222,11111222,99999999' 
ADCP,ioos:station:wmo:42373:1,2008-08-02T21:52:00Z,27.3540,-94.6250,79.0,174.0,36.8,-9999.0,'11111222,11111222,99999999' 
ADCP,ioos:station:wmo:42373:1,2008-08-02T22:12:00Z,27.3540,-94.6250,79.0,179.0,34.8,-9999.0,'11111222,11111222,99999999' 
ADCP,ioos:station:wmo:42373:1,2008-08-02T22:32:00Z,27.3540,-94.6250,79.0,178.0,34.4,-9999.0,'11111222,11111222,99999999' 
ADCP,ioos:station:wmo:42373:1,2008-08-02T22:52:00Z,27.3540,-94.6250,79.0,171.0,35.6,-9999.0,'11111222,11111222,99999999' 
ADCP,ioos:station:wmo:42373:1,2008-08-02T23:12:00Z,27.3540,-94.6250,79.0,182.0,35.5,-9999.0,'11111222,11111222,99999999' 
ADCP,ioos:station:wmo:42373:1,2008-08-02T23:32:00Z,27.3540,-94.6250,79.0,183.0,32.3,-9999.0,'11111222,11111222,99999999' 
ADCP,ioos:station:wmo:42373:1,2008-08-02T23:52:00Z,27.3540,-94.6250,79.0,181.0,30.9,-9999.0,'11111222,11111222,99999999' 
ADCP,ioos:station:wmo:42373:1,2008-08-03T00:12:00Z,27.3540,-94.6250,79.0,167.0,35.3,-9999.0,'11111222,11111222,99999999' 
ADCP,ioos:station:wmo:42373:1,2008-08-03T00:32:00Z,27.3540,-94.6250,79.0,156.0,33.8,-9999.0,'11111222,11111222,99999999' 
ADCP,ioos:station:wmo:42373:1,2008-08-03T00:52:00Z,27.3540,-94.6250,79.0,152.0,35.9,-9999.0,'11111222,11111222,99999999' 
ADCP,ioos:station:wmo:42373:1,2008-08-03T01:12:00Z,27.3540,-94.6250,79.0,149.0,35.8,-9999.0,'11111222,11111222,99999999' 
ADCP,ioos:station:wmo:42373:1,2008-08-03T01:32:00Z,27.3540,-94.6250,79.0,146.0,35.9,-9999.0,'11111222,11111222,99999999' 
ADCP,ioos:station:wmo:42373:1,2008-08-03T01:52:00Z,27.3540,-94.6250,79.0,157.0,38.5,-9999.0,'11111222,11111222,99999999' 
ADCP,ioos:station:wmo:42373:1,2008-08-03T02:12:00Z,27.3540,-94.6250,79.0,139.0,36.3,-9999.0,'11111222,11111222,99999999' 
ADCP,ioos:station:wmo:42373:1,2008-08-03T02:32:00Z,27.3540,-94.6250,79.0,143.0,32.9,-9999.0,'11111222,11111222,99999999' 
ADCP,ioos:station:wmo:42373:1,2008-08-03T02:52:00Z,27.3540,-94.6250,79.0,149.0,33.2,-9999.0,'11111222,11111222,99999999' 
ADCP,ioos:station:wmo:42373:1,2008-08-03T03:12:00Z,27.3540,-94.6250,79.0,145.0,32.7,-9999.0,'11111222,11111222,99999999' 
ADCP,ioos:station:wmo:42373:1,2008-08-03T03:32:00Z,27.3540,-94.6250,79.0,141.0,33.0,-9999.0,'11111222,11111222,99999999' 
ADCP,ioos:station:wmo:42373:1,2008-08-03T03:52:00Z,27.3540,-94.6250,79.0,144.0,31.4,-9999.0,'11111222,11111222,99999999' 
ADCP,ioos:station:wmo:42373:1,2008-08-03T04:12:00Z,27.3540,-94.6250,79.0,148.0,32.0,-9999.0,'11111222,11111222,99999999' 
ADCP,ioos:station:wmo:42373:1,2008-08-03T04:32:00Z,27.3540,-94.6250,79.0,142.0,30.2,-9999.0,'11111222,11111222,99999999' 
ADCP,ioos:station:wmo:42373:1,2008-08-03T04:52:00Z,27.3540,-94.6250,79.0,142.0,28.9,-9999.0,'11111222,11111222,99999999' 
ADCP,ioos:station:wmo:42373:1,2008-08-03T05:12:00Z,27.3540,-94.6250,79.0,145.0,29.3,-9999.0,'11111222,11111222,99999999' 
ADCP,ioos:station:wmo:42373:1,2008-08-03T05:32:00Z,27.3540,-94.6250,79.0,139.0,31.0,-9999.0,'11111222,11111222,99999999' 
ADCP,ioos:station:wmo:42373:1,2008-08-03T05:52:00Z,27.3540,-94.6250,79.0,143.0,28.9,-9999.0,'11111222,11111222,99999999' 
ADCP,ioos:station:wmo:42373:1,2008-08-03T06:12:00Z,27.3540,-94.6250,79.0,143.0,29.2,-9999.0,'11111222,11111222,99999999' 
ADCP,ioos:station:wmo:42373:1,2008-08-03T06:32:00Z,27.3540,-94.6250,79.0,137.0,29.1,-9999.0,'11111222,11111222,99999999' 
ADCP,ioos:station:wmo:42373:1,2008-08-03T06:52:00Z,27.3540,-94.6250,79.0,151.0,29.4,-9999.0,'11111222,11111222,99999999' 
ADCP,ioos:station:wmo:42373:1,2008-08-03T07:12:00Z,27.3540,-94.6250,79.0,142.0,26.4,-9999.0,'11111222,11111222,99999999' 
ADCP,ioos:station:wmo:42373:1,2008-08-03T07:32:00Z,27.3540,-94.6250,79.0,147.0,26.4,-9999.0,'11111222,11111222,99999999' 
ADCP,ioos:station:wmo:42373:1,2008-08-03T07:52:00Z,27.3540,-94.6250,79.0,148.0,27.7,-9999.0,'11111222,11111222,99999999' 
ADCP,ioos:station:wmo:42373:1,2008-08-03T08:12:00Z,27.3540,-94.6250,79.0,140.0,28.7,-9999.0,'11111222,11111222,99999999' 
ADCP,ioos:station:wmo:42373:1,2008-08-03T08:32:00Z,27.3540,-94.6250,79.0,141.0,28.0,-9999.0,'11111222,11111222,99999999' 
ADCP,ioos:station:wmo:42373:1,2008-08-03T08:52:00Z,27.3540,-94.6250,79.0,145.0,27.0,-9999.0,'11111222,11111222,99999999' 
ADCP,ioos:station:wmo:42373:1,2008-08-03T09:12:00Z,27.3540,-94.6250,79.0,145.0,26.1,-9999.0,'11111222,11111222,99999999' 
ADCP,ioos:station:wmo:42373:1,2008-08-03T09:32:00Z,27.3540,-94.6250,79.0,147.0,25.7,-9999.0,'11111222,11111222,99999999' 
ADCP,ioos:station:wmo:42373:1,2008-08-03T09:52:00Z,27.3540,-94.6250,79.0,148.0,27.3,-9999.0,'11111222,11111222,99999999' 
ADCP,ioos:station:wmo:42373:1,2008-08-03T10:12:00Z,27.3540,-94.6250,79.0,136.0,29.9,-9999.0,'11111222,11111222,99999999' 
ADCP,ioos:station:wmo:42373:1,2008-08-03T10:32:00Z,27.3540,-94.6250,79.0,147.0,28.2,-9999.0,'11111222,11111222,99999999' 
ADCP,ioos:station:wmo:42373:1,2008-08-03T10:52:00Z,27.3540,-94.6250,79.0,141.0,30.3,-9999.0,'11111222,11111222,99999999' 
ADCP,ioos:station:wmo:42373:1,2008-08-03T11:12:00Z,27.3540,-94.6250,79.0,141.0,31.9,-9999.0,'11111222,11111222,99999999' 
ADCP,ioos:station:wmo:42373:1,2008-08-03T11:32:00Z,27.3540,-94.6250,79.0,148.0,27.9,-9999.0,'11111222,11111222,99999999' 
ADCP,ioos:station:wmo:42373:1,2008-08-03T11:52:00Z,27.3540,-94.6250,79.0,150.0,24.5,-9999.0,'11111222,11111222,99999999' 
ADCP,ioos:station:wmo:42373:1,2008-08-03T12:12:00Z,27.3540,-94.6250,79.0,150.0,25.5,-9999.0,'11111222,11111222,99999999' 
ADCP,ioos:station:wmo:42373:1,2008-08-03T12:32:00Z,27.3540,-94.6250,79.0,147.0,27.5,-9999.0,'11111222,11111222,99999999' 
ADCP,ioos:station:wmo:42373:1,2008-08-03T12:52:00Z,27.3540,-94.6250,79.0,143.0,29.0,-9999.0,'11111222,11111222,99999999' 
ADCP,ioos:station:wmo:42373:1,2008-08-03T13:12:00Z,27.3540,-94.6250,79.0,140.0,30.4,-9999.0,'11111222,11111222,99999999' 
ADCP,ioos:station:wmo:42373:1,2008-08-03T13:32:00Z,27.3540,-94.6250,79.0,140.0,31.7,-9999.0,'11111222,11111222,99999999' 
ADCP,ioos:station:wmo:42373:1,2008-08-03T13:52:00Z,27.3540,-94.6250,79.0,135.0,35.9,-9999.0,'11111222,11111222,99999999' 
ADCP,ioos:station:wmo:42373:1,2008-08-03T14:12:00Z,27.3540,-94.6250,79.0,138.0,34.0,-9999.0,'11111222,11111222,99999999' 
ADCP,ioos:station:wmo:42373:1,2008-08-03T14:32:00Z,27.3540,-94.6250,79.0,137.0,37.1,-9999.0,'11111222,11111222,99999999' 
ADCP,ioos:station:wmo:42373:1,2008-08-03T14:52:00Z,27.3540,-94.6250,79.0,141.0,35.3,-9999.0,'11111222,11111222,99999999' 
ADCP,ioos:station:wmo:42373:1,2008-08-03T15:12:00Z,27.3540,-94.6250,79.0,140.0,35.4,-9999.0,'11111222,11111222,99999999' 
ADCP,ioos:station:wmo:42373:1,2008-08-03T15:32:00Z,27.3540,-94.6250,79.0,143.0,34.7,-9999.0,'11111222,11111222,99999999' 
ADCP,ioos:station:wmo:42373:1,2008-08-03T15:52:00Z,27.3540,-94.6250,79.0,150.0,35.1,-9999.0,'11111222,11111222,99999999' 
ADCP,ioos:station:wmo:42373:1,2008-08-03T16:12:00Z,27.3540,-94.6250,79.0,145.0,33.6,-9999.0,'11111222,11111222,99999999' 
ADCP,ioos:station:wmo:42373:1,2008-08-03T16:32:00Z,27.3540,-94.6250,79.0,157.0,32.0,-9999.0,'11111222,11111222,99999999' 
ADCP,ioos:station:wmo:42373:1,2008-08-03T16:52:00Z,27.3540,-94.6250,79.0,160.0,30.1,-9999.0,'11111222,11111222,99999999' 